Time,TemperatureF,DewpointF,PressureIn,WindDirection,WindDirectionDegrees,WindSpeedMPH,WindSpeedGustMPH,Humidity,HourlyPrecipIn,Conditions,Clouds,dailyrainin,SoftwareType,DateUTC
2015-02-01 00:05:00,17.7,3.8,29.99,West,272,3.0,15.0,54,0.00,CLR,,0.00,WeatherDisplay:10.37,2015-02-01 05:05:00,
2015-02-01 00:09:00,17.6,3.8,29.98,NE,48,4.0,11.5,54,0.00,CLR,,0.00,WeatherDisplay:10.37,2015-02-01 05:09:00,
2015-02-01 00:15:00,17.6,3.8,29.99,NNE,12,7.0,15.0,54,0.00,CLR,,0.00,WeatherDisplay:10.37,2015-02-01 05:15:00,
2015-02-01 00:19:00,17.5,3.3,29.99,WNW,300,3.7,10.4,53,0.00,CLR,,0.00,WeatherDisplay:10.37,2015-02-01 05:19:00,
2015-02-01 00:24:00,17.6,2.9,29.99,NW,310,4.9,20.7,52,0.00,CLR,,0.00,WeatherDisplay:10.37,2015-02-01 05:24:00,
2015-02-01 00:30:00,17.6,3.3,29.99,WNW,283,5.5,12.7,53,0.00,CLR,,0.00,WeatherDisplay:10.37,2015-02-01 05:30:00,
2015-02-01 00:35:00,17.6,3.3,30.00,WNW,291,1.9,8.1,53,0.00,CLR,,0.00,WeatherDisplay:10.37,2015-02-01 05:35:00,
2015-02-01 00:39:00,17.4,3.2,30.00,WNW,282,7.6,10.0,53,0.00,CLR,,0.00,WeatherDisplay:10.37,2015-02-01 05:39:00,
2015-02-01 00:44:00,17.3,3.1,30.00,WNW,283,5.8,12.7,53,0.00,CLR,,0.00,WeatherDisplay:10.37,2015-02-01 05:44:00,
2015-02-01 00:49:00,17.3,3.1,30.00,WNW,285,7.6,10.4,53,0.00,CLR,,0.00,WeatherDisplay:10.37,2015-02-01 05:49:00,
2015-02-01 00:55:00,17.2,3.0,30.00,West,272,5.5,12.7,53,0.00,CLR,,0.00,WeatherDisplay:10.37,2015-02-01 05:55:00,
2015-02-01 00:59:00,17.2,2.6,30.00,NW,309,5.0,13.8,52,0.00,CLR,,0.00,WeatherDisplay:10.37,2015-02-01 05:59:00,
2015-02-01 01:05:00,17.0,2.8,30.00,NNE,14,5.0,13.8,53,0.00,CLR,,0.00,WeatherDisplay:10.37,2015-02-01 06:05:00,
2015-02-01 01:10:00,17.0,2.4,30.00,NNE,12,7.6,7.6,52,0.00,CLR,,0.00,WeatherDisplay:10.37,2015-02-01 06:10:00,
2015-02-01 01:15:00,17.1,2.5,30.00,WNW,285,6.1,11.5,52,0.00,CLR,,0.00,WeatherDisplay:10.37,2015-02-01 06:15:00,
2015-02-01 01:20:00,17.0,2.4,30.00,NW,316,7.3,17.0,52,0.00,CLR,,0.00,WeatherDisplay:10.37,2015-02-01 06:20:00,
2015-02-01 01:25:00,17.0,2.4,30.00,NNE,30,4.9,9.2,52,0.00,CLR,,0.00,WeatherDisplay:10.37,2015-02-01 06:25:00,
2015-02-01 01:30:00,17.0,2.0,30.00,WNW,291,6.0,11.5,51,0.00,CLR,,0.00,WeatherDisplay:10.37,2015-02-01 06:30:00,
2015-02-01 01:35:00,17.0,2.4,30.00,WNW,285,4.8,11.5,52,0.00,CLR,,0.00,WeatherDisplay:10.37,2015-02-01 06:35:00,
2015-02-01 01:40:00,16.9,2.7,30.00,WNW,296,5.7,11.5,53,0.00,CLR,,0.00,WeatherDisplay:10.37,2015-02-01 06:40:00,
2015-02-01 01:50:00,16.9,2.7,30.00,WNW,295,4.2,9.2,53,0.00,CLR,,0.00,WeatherDisplay:10.37,2015-02-01 06:50:00,
2015-02-01 01:55:00,16.9,2.7,30.00,NW,320,1.8,10.4,53,0.00,CLR,,0.00,WeatherDisplay:10.37,2015-02-01 06:55:00,
2015-02-01 02:00:00,16.8,3.0,30.00,NW,305,6.7,15.0,54,0.00,CLR,,0.00,WeatherDisplay:10.37,2015-02-01 07:00:00,
2015-02-01 02:05:00,16.8,2.6,30.00,WNW,297,6.7,12.0,53,0.00,CLR,,0.00,WeatherDisplay:10.37,2015-02-01 07:05:00,
2015-02-01 02:10:00,16.9,3.1,30.00,North,4,3.4,12.7,54,0.00,CLR,,0.00,WeatherDisplay:10.37,2015-02-01 07:10:00,
2015-02-01 02:15:00,16.9,3.1,30.00,West,271,6.2,12.7,54,0.00,CLR,,0.00,WeatherDisplay:10.37,2015-02-01 07:15:00,
2015-02-01 02:20:00,17.0,3.6,30.01,WNW,286,5.4,11.5,55,0.00,CLR,,0.00,WeatherDisplay:10.37,2015-02-01 07:20:00,
2015-02-01 02:25:00,17.0,3.6,30.01,WNW,299,5.6,11.5,55,0.00,CLR,,0.00,WeatherDisplay:10.37,2015-02-01 07:25:00,
2015-02-01 02:30:00,17.1,3.7,30.01,West,276,6.0,15.0,55,0.00,CLR,,0.00,WeatherDisplay:10.37,2015-02-01 07:30:00,
2015-02-01 02:35:00,17.2,3.8,30.01,NNW,341,4.5,16.1,55,0.00,CLR,,0.00,WeatherDisplay:10.37,2015-02-01 07:35:00,
2015-02-01 02:40:00,17.2,4.6,30.01,NNW,330,4.1,6.9,57,0.00,CLR,,0.00,WeatherDisplay:10.37,2015-02-01 07:40:00,
2015-02-01 02:45:00,17.3,4.3,30.01,WNW,285,7.1,18.4,56,0.00,CLR,,0.00,WeatherDisplay:10.37,2015-02-01 07:45:00,
2015-02-01 02:50:00,17.5,4.5,30.01,WNW,301,5.9,8.1,56,0.00,CLR,,0.00,WeatherDisplay:10.37,2015-02-01 07:50:00,
2015-02-01 02:55:00,17.5,4.8,30.01,NNW,346,2.9,5.8,57,0.00,CLR,,0.00,WeatherDisplay:10.37,2015-02-01 07:55:00,
2015-02-01 03:00:00,17.5,4.8,30.01,WNW,288,6.9,16.1,57,0.00,CLR,,0.00,WeatherDisplay:10.37,2015-02-01 08:00:00,
2015-02-01 03:05:00,17.5,5.2,30.01,WNW,299,3.3,8.1,58,0.00,CLR,,0.00,WeatherDisplay:10.37,2015-02-01 08:05:00,
2015-02-01 03:10:00,17.5,5.2,30.01,ENE,58,4.5,11.5,58,0.00,CLR,,0.00,WeatherDisplay:10.37,2015-02-01 08:10:00,
2015-02-01 03:15:00,17.5,5.6,30.01,NNW,332,8.9,15.0,59,0.00,CLR,,0.00,WeatherDisplay:10.37,2015-02-01 08:15:00,
2015-02-01 03:20:00,17.6,5.7,30.02,NW,305,5.8,9.2,59,0.00,CLR,,0.00,WeatherDisplay:10.37,2015-02-01 08:20:00,
2015-02-01 03:25:00,17.6,5.7,30.02,NNW,347,4.0,11.5,59,0.00,CLR,,0.00,WeatherDisplay:10.37,2015-02-01 08:25:00,
2015-02-01 03:30:00,17.5,6.0,30.02,West,271,4.3,8.1,60,0.00,CLR,,0.00,WeatherDisplay:10.37,2015-02-01 08:30:00,
2015-02-01 03:35:00,17.4,5.9,30.02,WNW,301,4.6,9.2,60,0.00,CLR,,0.00,WeatherDisplay:10.37,2015-02-01 08:35:00,
2015-02-01 03:40:00,17.4,5.9,30.03,WNW,295,4.1,11.5,60,0.00,CLR,,0.00,WeatherDisplay:10.37,2015-02-01 08:40:00,
2015-02-01 03:45:00,17.3,6.1,30.03,West,262,6.8,16.1,61,0.00,CLR,,0.00,WeatherDisplay:10.37,2015-02-01 08:45:00,
2015-02-01 03:50:00,17.3,6.1,30.03,NW,325,5.6,10.4,61,0.00,CLR,,0.00,WeatherDisplay:10.37,2015-02-01 08:50:00,
2015-02-01 03:55:00,17.2,6.4,30.03,NW,305,4.6,15.0,62,0.00,CLR,,0.00,WeatherDisplay:10.37,2015-02-01 08:55:00,
2015-02-01 04:00:00,17.3,6.8,30.04,West,278,6.4,12.7,63,0.00,CLR,,0.00,WeatherDisplay:10.37,2015-02-01 09:00:00,
2015-02-01 04:05:00,17.5,7.0,30.04,West,276,2.3,9.2,63,0.00,CLR,,0.00,WeatherDisplay:10.37,2015-02-01 09:05:00,
2015-02-01 04:10:00,17.5,7.4,30.04,West,271,6.6,9.2,64,0.00,CLR,,0.00,WeatherDisplay:10.37,2015-02-01 09:10:00,
2015-02-01 04:15:00,17.7,7.6,30.04,WNW,296,5.7,9.0,64,0.00,CLR,,0.00,WeatherDisplay:10.37,2015-02-01 09:15:00,
2015-02-01 04:20:00,17.9,7.8,30.04,WSW,258,2.6,6.9,64,0.00,CLR,,0.00,WeatherDisplay:10.37,2015-02-01 09:20:00,
2015-02-01 04:25:00,18.0,8.2,30.04,WSW,243,4.7,9.2,65,0.00,CLR,,0.00,WeatherDisplay:10.37,2015-02-01 09:25:00,
2015-02-01 04:30:00,18.1,8.6,30.04,NW,324,6.9,11.5,66,0.00,CLR,,0.00,WeatherDisplay:10.37,2015-02-01 09:30:00,
2015-02-01 04:35:00,18.4,8.9,30.04,West,280,5.2,10.4,66,0.00,CLR,,0.00,WeatherDisplay:10.37,2015-02-01 09:35:00,
2015-02-01 04:40:00,18.7,9.2,30.04,WNW,285,5.5,13.8,66,0.00,CLR,,0.00,WeatherDisplay:10.37,2015-02-01 09:40:00,
2015-02-01 04:45:00,18.8,9.3,30.05,West,280,2.5,10.4,66,0.00,CLR,,0.00,WeatherDisplay:10.37,2015-02-01 09:45:00,
2015-02-01 04:50:00,19.1,9.9,30.05,WNW,287,5.2,11.5,67,0.00,CLR,,0.00,WeatherDisplay:10.37,2015-02-01 09:50:00,
2015-02-01 04:55:00,19.3,9.8,30.05,West,281,6.4,11.5,66,0.00,CLR,,0.00,WeatherDisplay:10.37,2015-02-01 09:55:00,
2015-02-01 05:00:00,19.3,9.4,30.05,NW,323,5.7,15.0,65,0.00,CLR,,0.00,WeatherDisplay:10.37,2015-02-01 10:00:00,
2015-02-01 05:05:00,19.1,9.6,30.05,WNW,303,3.1,11.5,66,0.00,CLR,,0.00,WeatherDisplay:10.37,2015-02-01 10:05:00,
2015-02-01 05:10:00,19.0,9.8,30.05,WNW,285,4.2,11.5,67,0.00,CLR,,0.00,WeatherDisplay:10.37,2015-02-01 10:10:00,
2015-02-01 05:15:00,19.2,10.0,30.05,NNW,344,5.9,11.5,67,0.00,CLR,,0.00,WeatherDisplay:10.37,2015-02-01 10:15:00,
2015-02-01 05:20:00,19.3,10.1,30.05,NNW,346,4.3,10.0,67,0.00,CLR,,0.00,WeatherDisplay:10.37,2015-02-01 10:20:00,
2015-02-01 05:25:00,19.4,10.6,30.05,West,270,6.6,12.7,68,0.00,CLR,,0.00,WeatherDisplay:10.37,2015-02-01 10:25:00,
2015-02-01 05:30:00,19.8,11.3,30.06,NW,305,4.6,12.7,69,0.00,CLR,,0.00,WeatherDisplay:10.37,2015-02-01 10:30:00,
2015-02-01 05:35:00,20.0,11.5,30.06,NW,318,3.4,6.9,69,0.00,CLR,,0.00,WeatherDisplay:10.37,2015-02-01 10:35:00,
2015-02-01 05:40:00,20.1,11.6,30.06,West,277,3.9,13.8,69,0.00,CLR,,0.00,WeatherDisplay:10.37,2015-02-01 10:40:00,
2015-02-01 05:45:00,20.4,11.8,30.06,NW,304,6.4,10.0,69,0.00,CLR,,0.00,WeatherDisplay:10.37,2015-02-01 10:45:00,
2015-02-01 05:50:00,20.7,12.5,30.06,WNW,298,4.4,9.2,70,0.00,CLR,,0.00,WeatherDisplay:10.37,2015-02-01 10:50:00,
2015-02-01 05:55:00,20.9,12.3,30.06,NW,314,3.8,9.2,69,0.00,CLR,,0.00,WeatherDisplay:10.37,2015-02-01 10:55:00,
2015-02-01 06:00:00,21.1,12.2,30.06,West,273,4.4,8.1,68,0.00,CLR,,0.00,WeatherDisplay:10.37,2015-02-01 11:00:00,
2015-02-01 06:05:00,21.2,11.9,30.06,WNW,299,6.4,12.0,67,0.00,CLR,,0.00,WeatherDisplay:10.37,2015-02-01 11:05:00,
2015-02-01 06:10:00,21.1,11.8,30.07,North,350,7.8,16.1,67,0.00,CLR,,0.00,WeatherDisplay:10.37,2015-02-01 11:10:00,
2015-02-01 06:15:00,21.0,12.1,30.07,NNW,331,4.9,7.0,68,0.00,CLR,,0.00,WeatherDisplay:10.37,2015-02-01 11:15:00,
2015-02-01 06:20:00,21.0,12.1,30.07,WNW,290,3.6,9.2,68,0.00,CLR,,0.00,WeatherDisplay:10.37,2015-02-01 11:20:00,
2015-02-01 06:25:00,21.2,12.3,30.07,NW,322,7.0,10.4,68,0.00,CLR,,0.00,WeatherDisplay:10.37,2015-02-01 11:25:00,
2015-02-01 06:30:00,21.5,12.6,30.07,West,281,4.9,11.5,68,0.00,CLR,,0.00,WeatherDisplay:10.37,2015-02-01 11:30:00,
2015-02-01 06:35:00,21.7,12.8,30.08,WNW,301,6.3,11.5,68,0.00,CLR,,0.00,WeatherDisplay:10.37,2015-02-01 11:35:00,
2015-02-01 06:40:00,21.7,12.4,30.08,WSW,256,3.0,8.1,67,0.00,CLR,,0.00,WeatherDisplay:10.37,2015-02-01 11:40:00,
2015-02-01 06:45:00,21.5,12.2,30.09,NW,310,6.3,16.1,67,0.00,CLR,,0.00,WeatherDisplay:10.37,2015-02-01 11:45:00,
2015-02-01 06:50:00,21.5,12.2,30.09,SW,233,7.8,18.4,67,0.00,CLR,,0.00,WeatherDisplay:10.37,2015-02-01 11:50:00,
2015-02-01 06:55:00,21.6,12.3,30.09,NW,304,6.2,11.5,67,0.00,CLR,,0.00,WeatherDisplay:10.37,2015-02-01 11:55:00,
2015-02-01 07:00:00,21.4,12.1,30.10,WNW,292,6.4,15.0,67,0.00,CLR,,0.00,WeatherDisplay:10.37,2015-02-01 12:00:00,
2015-02-01 07:05:00,21.1,11.8,30.10,WNW,296,8.4,12.7,67,0.00,CLR,,0.00,WeatherDisplay:10.37,2015-02-01 12:05:00,
2015-02-01 07:10:00,20.9,12.0,30.10,West,273,6.5,11.5,68,0.00,CLR,,0.00,WeatherDisplay:10.37,2015-02-01 12:10:00,
2015-02-01 07:15:00,20.8,12.2,30.10,WNW,290,6.0,15.0,69,0.00,CLR,,0.00,WeatherDisplay:10.37,2015-02-01 12:15:00,
2015-02-01 07:20:00,20.8,12.2,30.11,WNW,292,3.9,9.2,69,0.00,CLR,,0.00,WeatherDisplay:10.37,2015-02-01 12:20:00,
2015-02-01 07:25:00,20.7,12.1,30.11,WNW,291,2.2,6.9,69,0.00,CLR,,0.00,WeatherDisplay:10.37,2015-02-01 12:25:00,
2015-02-01 07:30:00,20.7,12.1,30.11,WSW,252,2.7,9.2,69,0.00,CLR,,0.00,WeatherDisplay:10.37,2015-02-01 12:30:00,
2015-02-01 07:35:00,20.8,12.6,30.11,West,279,5.3,11.5,70,0.00,CLR,,0.00,WeatherDisplay:10.37,2015-02-01 12:35:00,
2015-02-01 07:40:00,20.8,12.6,30.11,WNW,293,2.9,6.9,70,0.00,CLR,,0.00,WeatherDisplay:10.37,2015-02-01 12:40:00,
2015-02-01 07:45:00,20.8,12.9,30.12,West,270,4.4,9.2,71,0.00,CLR,,0.00,WeatherDisplay:10.37,2015-02-01 12:45:00,
2015-02-01 07:50:00,20.8,12.9,30.12,West,270,2.9,9.2,71,0.00,CLR,,0.00,WeatherDisplay:10.37,2015-02-01 12:50:00,
2015-02-01 07:55:00,20.7,12.5,30.12,NW,324,6.1,11.5,70,0.00,CLR,,0.00,WeatherDisplay:10.37,2015-02-01 12:55:00,
2015-02-01 08:00:00,20.6,12.4,30.12,WSW,247,4.4,8.1,70,0.00,CLR,,0.00,WeatherDisplay:10.37,2015-02-01 13:00:00,
2015-02-01 08:05:00,20.5,11.6,30.12,West,264,5.6,11.5,68,0.00,CLR,,0.00,WeatherDisplay:10.37,2015-02-01 13:05:00,
2015-02-01 08:10:00,20.4,11.2,30.12,West,272,8.5,10.4,67,0.00,CLR,,0.00,WeatherDisplay:10.37,2015-02-01 13:10:00,
2015-02-01 08:15:00,20.4,10.5,30.12,West,270,4.1,9.2,65,0.00,CLR,,0.00,WeatherDisplay:10.37,2015-02-01 13:15:00,
2015-02-01 08:20:00,20.6,11.0,30.13,West,268,2.1,5.8,66,0.00,CLR,,0.00,WeatherDisplay:10.37,2015-02-01 13:20:00,
2015-02-01 08:25:00,20.8,10.9,30.13,West,268,3.5,7.0,65,0.00,CLR,,0.00,WeatherDisplay:10.37,2015-02-01 13:25:00,
2015-02-01 08:30:00,21.0,11.1,30.13,WNW,295,5.5,6.9,65,0.00,CLR,,0.00,WeatherDisplay:10.37,2015-02-01 13:30:00,
2015-02-01 08:35:00,21.1,10.8,30.13,West,275,2.3,6.9,64,0.00,CLR,,0.00,WeatherDisplay:10.37,2015-02-01 13:35:00,
2015-02-01 08:40:00,21.2,10.9,30.13,West,267,5.2,10.0,64,0.00,CLR,,0.00,WeatherDisplay:10.37,2015-02-01 13:40:00,
2015-02-01 08:45:00,21.2,11.3,30.13,West,277,6.3,16.1,65,0.00,CLR,,0.00,WeatherDisplay:10.37,2015-02-01 13:45:00,
2015-02-01 08:50:00,21.5,11.9,30.13,WNW,283,3.1,9.2,66,0.00,CLR,,0.00,WeatherDisplay:10.37,2015-02-01 13:50:00,
2015-02-01 08:55:00,21.8,12.2,30.13,WNW,299,5.7,7.0,66,0.00,CLR,,0.00,WeatherDisplay:10.37,2015-02-01 13:55:00,
2015-02-01 09:00:00,22.0,12.7,30.13,WNW,299,4.9,11.5,67,0.00,CLR,,0.00,WeatherDisplay:10.37,2015-02-01 14:00:00,
2015-02-01 09:05:00,22.3,13.0,30.13,WSW,250,5.5,13.8,67,0.00,CLR,,0.00,WeatherDisplay:10.37,2015-02-01 14:05:00,
2015-02-01 09:10:00,22.5,13.2,30.13,NW,315,5.4,13.8,67,0.00,CLR,,0.00,WeatherDisplay:10.37,2015-02-01 14:10:00,
2015-02-01 09:15:00,22.7,13.7,30.13,WNW,303,4.0,8.1,68,0.00,CLR,,0.00,WeatherDisplay:10.37,2015-02-01 14:15:00,
2015-02-01 09:20:00,23.0,13.7,30.13,WNW,288,10.6,13.8,67,0.00,CLR,,0.00,WeatherDisplay:10.37,2015-02-01 14:20:00,
2015-02-01 09:25:00,23.4,14.0,30.13,West,280,5.8,10.4,67,0.00,CLR,,0.00,WeatherDisplay:10.37,2015-02-01 14:25:00,
2015-02-01 09:30:00,23.8,14.8,30.13,NW,317,7.0,10.4,68,0.00,CLR,,0.00,WeatherDisplay:10.37,2015-02-01 14:30:00,
2015-02-01 09:35:00,24.2,14.8,30.13,WNW,302,3.8,10.0,67,0.00,CLR,,0.00,WeatherDisplay:10.37,2015-02-01 14:35:00,
2015-02-01 09:40:00,24.5,15.1,30.13,West,278,7.2,13.0,67,0.00,CLR,,0.00,WeatherDisplay:10.37,2015-02-01 14:40:00,
2015-02-01 09:45:00,24.8,15.4,30.13,WNW,287,7.3,9.2,67,0.00,CLR,,0.00,WeatherDisplay:10.37,2015-02-01 14:45:00,
2015-02-01 09:50:00,25.0,15.2,30.14,WNW,285,6.8,11.5,66,0.00,CLR,,0.00,WeatherDisplay:10.37,2015-02-01 14:50:00,
2015-02-01 09:55:00,25.4,16.0,30.13,West,266,4.5,9.2,67,0.00,CLR,,0.00,WeatherDisplay:10.37,2015-02-01 14:55:00,
2015-02-01 10:00:00,26.0,16.5,30.13,WNW,300,4.7,8.1,67,0.00,CLR,,0.00,WeatherDisplay:10.37,2015-02-01 15:00:00,
2015-02-01 10:05:00,26.6,16.4,30.13,WNW,293,5.8,11.5,65,0.00,CLR,,0.00,WeatherDisplay:10.37,2015-02-01 15:05:00,
2015-02-01 10:10:00,26.7,16.1,30.13,WNW,289,6.8,12.7,64,0.00,CLR,,0.00,WeatherDisplay:10.37,2015-02-01 15:10:00,
2015-02-01 10:15:00,26.9,16.7,30.13,NW,305,9.3,15.0,65,0.00,CLR,,0.00,WeatherDisplay:10.37,2015-02-01 15:15:00,
2015-02-01 10:20:00,27.1,16.5,30.13,WSW,250,4.5,11.5,64,0.00,CLR,,0.00,WeatherDisplay:10.37,2015-02-01 15:20:00,
2015-02-01 10:25:00,27.2,16.6,30.13,WNW,291,4.3,9.0,64,0.00,CLR,,0.00,WeatherDisplay:10.37,2015-02-01 15:25:00,
2015-02-01 10:30:00,27.4,16.1,30.13,NW,310,7.7,17.3,62,0.00,CLR,,0.00,WeatherDisplay:10.37,2015-02-01 15:30:00,
2015-02-01 10:35:00,27.5,16.5,30.13,West,274,8.9,9.2,63,0.00,CLR,,0.00,WeatherDisplay:10.37,2015-02-01 15:35:00,
2015-02-01 10:40:00,27.4,16.8,30.13,NW,319,3.2,11.5,64,0.00,CLR,,0.00,WeatherDisplay:10.37,2015-02-01 15:40:00,
2015-02-01 10:45:00,28.1,17.1,30.13,WNW,303,4.4,8.0,63,0.00,CLR,,0.00,WeatherDisplay:10.37,2015-02-01 15:45:00,
2015-02-01 10:50:00,28.2,16.8,30.12,WNW,296,6.0,12.7,62,0.00,CLR,,0.00,WeatherDisplay:10.37,2015-02-01 15:50:00,
2015-02-01 10:55:00,28.1,16.7,30.12,WNW,297,4.6,10.4,62,0.00,CLR,,0.00,WeatherDisplay:10.37,2015-02-01 15:55:00,
2015-02-01 11:00:00,28.2,17.2,30.12,WNW,290,4.3,11.5,63,0.00,CLR,,0.00,WeatherDisplay:10.37,2015-02-01 16:00:00,
2015-02-01 11:05:00,28.3,16.9,30.11,WNW,290,3.1,11.5,62,0.00,CLR,,0.00,WeatherDisplay:10.37,2015-02-01 16:05:00,
2015-02-01 11:10:00,28.8,17.4,30.11,West,261,5.0,9.2,62,0.00,CLR,,0.00,WeatherDisplay:10.37,2015-02-01 16:10:00,
2015-02-01 11:15:00,28.9,17.1,30.11,WNW,285,4.3,8.1,61,0.00,CLR,,0.00,WeatherDisplay:10.37,2015-02-01 16:15:00,
2015-02-01 11:20:00,29.0,17.2,30.11,West,276,7.0,15.0,61,0.00,CLR,,0.00,WeatherDisplay:10.37,2015-02-01 16:20:00,
2015-02-01 11:25:00,29.0,17.6,30.11,WNW,297,7.0,10.4,62,0.00,CLR,,0.00,WeatherDisplay:10.37,2015-02-01 16:25:00,
2015-02-01 11:30:00,29.0,17.6,30.11,West,259,3.1,3.5,62,0.00,CLR,,0.00,WeatherDisplay:10.37,2015-02-01 16:30:00,
2015-02-01 11:35:00,29.4,18.3,30.10,WNW,295,1.9,3.5,63,0.00,CLR,,0.00,WeatherDisplay:10.37,2015-02-01 16:35:00,
2015-02-01 11:40:00,29.3,17.5,30.10,WNW,288,6.0,9.2,61,0.00,CLR,,0.00,WeatherDisplay:10.37,2015-02-01 16:40:00,
2015-02-01 11:45:00,29.4,18.0,30.10,NW,324,5.8,11.5,62,0.00,CLR,,0.00,WeatherDisplay:10.37,2015-02-01 16:45:00,
2015-02-01 11:50:00,29.7,17.9,30.09,West,276,9.5,13.8,61,0.00,CLR,,0.00,WeatherDisplay:10.37,2015-02-01 16:50:00,
2015-02-01 11:55:00,29.8,18.0,30.09,WNW,288,7.1,14.0,61,0.00,CLR,,0.00,WeatherDisplay:10.37,2015-02-01 16:55:00,
2015-02-01 12:00:00,29.7,17.5,30.09,West,270,3.9,6.9,60,0.00,CLR,,0.00,WeatherDisplay:10.37,2015-02-01 17:00:00,
2015-02-01 12:05:00,29.8,17.6,30.09,West,272,3.3,10.4,60,0.00,CLR,,0.00,WeatherDisplay:10.37,2015-02-01 17:05:00,
2015-02-01 12:10:00,29.8,17.6,30.09,West,278,6.4,10.0,60,0.00,CLR,,0.00,WeatherDisplay:10.37,2015-02-01 17:10:00,
2015-02-01 12:15:00,29.7,17.9,30.09,SW,222,5.0,11.0,61,0.00,CLR,,0.00,WeatherDisplay:10.37,2015-02-01 17:15:00,
2015-02-01 12:20:00,29.7,17.5,30.08,WNW,285,6.9,15.0,60,0.00,CLR,,0.00,WeatherDisplay:10.37,2015-02-01 17:20:00,
2015-02-01 12:25:00,29.6,17.4,30.08,West,280,10.7,11.5,60,0.00,CLR,,0.00,WeatherDisplay:10.37,2015-02-01 17:25:00,
2015-02-01 12:30:00,29.7,17.9,30.08,WNW,289,8.9,11.5,61,0.00,CLR,,0.00,WeatherDisplay:10.37,2015-02-01 17:30:00,
2015-02-01 12:35:00,30.1,17.5,30.08,West,268,7.3,16.1,59,0.00,CLR,,0.00,WeatherDisplay:10.37,2015-02-01 17:35:00,
2015-02-01 12:40:00,30.3,17.3,30.08,North,354,5.6,11.5,58,0.00,CLR,,0.00,WeatherDisplay:10.37,2015-02-01 17:40:00,
2015-02-01 12:45:00,30.6,17.6,30.07,WSW,258,5.3,10.0,58,0.00,CLR,,0.00,WeatherDisplay:10.37,2015-02-01 17:45:00,
2015-02-01 12:50:00,30.5,17.1,30.07,NW,304,5.2,13.8,57,0.00,CLR,,0.00,WeatherDisplay:10.37,2015-02-01 17:50:00,
2015-02-01 12:55:00,30.7,17.7,30.07,WNW,288,1.3,8.1,58,0.00,CLR,,0.00,WeatherDisplay:10.37,2015-02-01 17:55:00,
2015-02-01 13:00:00,31.1,18.0,30.07,WNW,286,3.3,13.0,58,0.00,CLR,,0.00,WeatherDisplay:10.37,2015-02-01 18:00:00,
2015-02-01 13:05:00,31.2,17.7,30.07,West,272,7.4,13.8,57,0.00,CLR,,0.00,WeatherDisplay:10.37,2015-02-01 18:05:00,
2015-02-01 13:10:00,31.1,17.6,30.07,NNW,347,2.8,6.9,57,0.00,CLR,,0.00,WeatherDisplay:10.37,2015-02-01 18:10:00,
2015-02-01 13:15:00,31.2,16.9,30.08,West,280,3.8,6.9,55,0.00,CLR,,0.00,WeatherDisplay:10.37,2015-02-01 18:15:00,
2015-02-01 13:20:00,31.3,17.4,30.07,West,267,1.8,7.0,56,0.00,CLR,,0.00,WeatherDisplay:10.37,2015-02-01 18:20:00,
2015-02-01 13:25:00,31.3,17.4,30.07,WSW,247,5.9,13.8,56,0.00,CLR,,0.00,WeatherDisplay:10.37,2015-02-01 18:25:00,
2015-02-01 13:30:00,31.4,17.5,30.07,WNW,289,6.1,10.4,56,0.00,CLR,,0.00,WeatherDisplay:10.37,2015-02-01 18:30:00,
2015-02-01 13:35:00,31.6,18.1,30.07,WNW,295,7.1,10.4,57,0.00,CLR,,0.00,WeatherDisplay:10.37,2015-02-01 18:35:00,
2015-02-01 13:40:00,31.9,18.0,30.07,North,359,3.2,9.2,56,0.00,CLR,,0.00,WeatherDisplay:10.37,2015-02-01 18:40:00,
2015-02-01 13:45:00,32.3,18.8,30.07,NNW,333,4.6,12.7,57,0.00,CLR,,0.00,WeatherDisplay:10.37,2015-02-01 18:45:00,
2015-02-01 13:50:00,32.1,17.7,30.07,West,268,6.4,11.0,55,0.00,CLR,,0.00,WeatherDisplay:10.37,2015-02-01 18:50:00,
2015-02-01 13:55:00,31.9,17.5,30.07,West,280,6.4,10.4,55,0.00,CLR,,0.00,WeatherDisplay:10.37,2015-02-01 18:55:00,
2015-02-01 14:00:00,32.1,18.6,30.07,West,261,5.3,11.5,57,0.00,CLR,,0.00,WeatherDisplay:10.37,2015-02-01 19:00:00,
2015-02-01 14:05:00,32.1,17.7,30.07,SW,220,3.8,10.4,55,0.00,CLR,,0.00,WeatherDisplay:10.37,2015-02-01 19:05:00,
2015-02-01 14:10:00,31.7,16.9,30.07,West,261,2.8,5.8,54,0.00,CLR,,0.00,WeatherDisplay:10.37,2015-02-01 19:10:00,
2015-02-01 14:15:00,32.0,17.6,30.07,WSW,245,4.7,8.1,55,0.00,CLR,,0.00,WeatherDisplay:10.37,2015-02-01 19:15:00,
2015-02-01 14:20:00,32.3,18.3,30.07,West,262,3.0,9.0,56,0.00,CLR,,0.00,WeatherDisplay:10.37,2015-02-01 19:20:00,
2015-02-01 14:25:00,32.0,17.2,30.07,West,262,6.4,11.5,54,0.00,CLR,,0.00,WeatherDisplay:10.37,2015-02-01 19:25:00,
2015-02-01 14:30:00,31.7,17.8,30.07,NW,311,5.8,8.1,56,0.00,CLR,,0.00,WeatherDisplay:10.37,2015-02-01 19:30:00,
2015-02-01 14:35:00,31.7,17.8,30.06,NW,309,2.5,5.0,56,0.00,CLR,,0.00,WeatherDisplay:10.37,2015-02-01 19:35:00,
2015-02-01 14:40:00,31.9,17.1,30.06,West,266,3.4,9.2,54,0.00,CLR,,0.00,WeatherDisplay:10.37,2015-02-01 19:40:00,
2015-02-01 14:45:00,32.0,17.6,30.07,WNW,283,3.9,8.1,55,0.00,CLR,,0.00,WeatherDisplay:10.37,2015-02-01 19:45:00,